Powrót do katalogu

STARLINK-36937

AktywnyŁącznośćSSO
NORAD 68113·PAYLOAD·🇺🇸 United States

Wystrzelony Mar 8, 2026 z Vandenberg Space Force Base

Loading…

Następne Przeloty (najbliższe 24 godziny)

TLE

ŚwieżeSource: CelesTrak SupGP

Epoka: Sep 14, 2026, 21:11 UTC

1 68113C 26044N   26257.88312500 -.00000360  00000+0 -11166-4 0  2570
2 68113  97.2848 216.9184 0001837  85.9563  42.2230 15.33440453    11

Śledź STARLINK-36937 w czasie rzeczywistym z AllMySat

Download on the App Store